JST203 YSSY-YMML

Flight info

Callsign JST203
Flight time 1h 8m
Altitude 38000
Route KEVIN7/16L KEVIN WOL H65 LEECE Q29 ML
Aircraft A20N/M-SDE2E3FGHIRWXY/LB1

Departure

Time 2026-04-20 00:28
Airport Sydney Kingsford Smith International Airport (YSSY)

Arrival

Time 2026-04-20 01:36
Airport Melbourne Airport (YMML)
Time Latitude Longitude Altitude Speed Heading
2026-04-20 00:02 -33.93525 151.17777 30 ft 0 kts 279°
2026-04-20 00:19 -33.93526 151.17783 30 ft 1 kts 279°
2026-04-20 00:20 -33.93528 151.17798 30 ft 2 kts 279°
2026-04-20 00:20 -33.93530 151.17820 30 ft 3 kts 259°
2026-04-20 00:20 -33.93520 151.17837 30 ft 3 kts 193°
2026-04-20 00:20 -33.93518 151.17838 30 ft 0 kts 188°
2026-04-20 00:23 -33.93527 151.17836 30 ft 3 kts 188°
2026-04-20 00:23 -33.93562 151.17830 30 ft 7 kts 188°
2026-04-20 00:24 -33.93642 151.17815 30 ft 16 kts 190°
2026-04-20 00:24 -33.93771 151.17787 24 ft 23 kts 189°
2026-04-20 00:24 -33.93948 151.17791 22 ft 27 kts 167°
2026-04-20 00:24 -33.94134 151.17840 26 ft 28 kts 167°
2026-04-20 00:25 -33.94315 151.17887 27 ft 26 kts 168°
2026-04-20 00:25 -33.94493 151.17892 25 ft 26 kts 198°
2026-04-20 00:25 -33.94621 151.17909 25 ft 16 kts 168°
2026-04-20 00:25 -33.94746 151.17941 21 ft 20 kts 168°
2026-04-20 00:26 -33.94896 151.17977 21 ft 24 kts 169°
2026-04-20 00:26 -33.95054 151.18019 26 ft 22 kts 164°
2026-04-20 00:26 -33.95094 151.18162 26 ft 21 kts 78°
2026-04-20 00:26 -33.95060 151.18350 27 ft 24 kts 78°
2026-04-20 00:27 -33.95022 151.18557 28 ft 26 kts 77°
2026-04-20 00:27 -33.94988 151.18783 27 ft 27 kts 96°
2026-04-20 00:27 -33.95119 151.18871 26 ft 25 kts 166°
2026-04-20 00:27 -33.95474 151.18965 26 ft 85 kts 168°
2026-04-20 00:28 -33.96241 151.19163 29 ft 139 kts 168°
2026-04-20 00:28 -33.97281 151.19442 272 ft 158 kts 165°
2026-04-20 00:28 -33.98177 151.20131 935 ft 151 kts 132°
2026-04-20 00:28 -33.98797 151.21145 1484 ft 155 kts 123°
2026-04-20 00:29 -33.99415 151.22293 1841 ft 173 kts 124°
2026-04-20 00:29 -34.00156 151.23544 2267 ft 192 kts 127°
2026-04-20 00:29 -34.01081 151.24847 2700 ft 217 kts 139°
2026-04-20 00:29 -34.02303 151.26051 3293 ft 237 kts 142°
2026-04-20 00:30 -34.03648 151.27348 3901 ft 258 kts 141°
2026-04-20 00:30 -34.05078 151.28735 4746 ft 266 kts 141°
2026-04-20 00:30 -34.06550 151.30105 5720 ft 270 kts 150°
2026-04-20 00:30 -34.08334 151.30802 6666 ft 273 kts 177°
2026-04-20 00:31 -34.10198 151.30444 7577 ft 276 kts 204°
2026-04-20 00:31 -34.11789 151.29144 8490 ft 279 kts 222°
2026-04-20 00:31 -34.13186 151.27490 9402 ft 283 kts 226°
2026-04-20 00:31 -34.14570 151.25758 10190 ft 293 kts 226°
2026-04-20 00:32 -34.16044 151.23966 10550 ft 316 kts 225°
2026-04-20 00:32 -34.17701 151.22037 10955 ft 335 kts 224°
2026-04-20 00:32 -34.19392 151.20120 11714 ft 340 kts 223°
2026-04-20 00:32 -34.21155 151.18144 12555 ft 344 kts 223°
2026-04-20 00:33 -34.22929 151.16161 13342 ft 348 kts 223°
2026-04-20 00:33 -34.24690 151.14191 14098 ft 352 kts 223°
2026-04-20 00:33 -34.26506 151.12157 14842 ft 356 kts 223°
2026-04-20 00:33 -34.28339 151.10101 15574 ft 360 kts 223°
2026-04-20 00:34 -34.30188 151.08025 16279 ft 364 kts 223°
2026-04-20 00:34 -34.32051 151.05932 16955 ft 368 kts 223°
2026-04-20 00:34 -34.33914 151.03837 17616 ft 372 kts 223°
2026-04-20 00:34 -34.35812 151.01701 18264 ft 375 kts 223°
2026-04-20 00:35 -34.37739 150.99531 18898 ft 379 kts 223°
2026-04-20 00:35 -34.39679 150.97345 19528 ft 383 kts 223°
2026-04-20 00:35 -34.41639 150.95136 20108 ft 386 kts 223°
2026-04-20 00:35 -34.43620 150.92900 20712 ft 390 kts 223°
2026-04-20 00:36 -34.45607 150.90656 21286 ft 393 kts 223°
2026-04-20 00:36 -34.47618 150.88384 21842 ft 397 kts 223°
2026-04-20 00:36 -34.49645 150.86092 22386 ft 400 kts 223°
2026-04-20 00:36 -34.51688 150.83779 22931 ft 403 kts 223°
2026-04-20 00:37 -34.53750 150.81444 23456 ft 407 kts 223°
2026-04-20 00:37 -34.55741 150.79034 23944 ft 410 kts 229°
2026-04-20 00:37 -34.57513 150.76308 24446 ft 413 kts 234°
2026-04-20 00:37 -34.59205 150.73471 24916 ft 416 kts 234°
2026-04-20 00:38 -34.60925 150.70617 25348 ft 420 kts 234°
2026-04-20 00:38 -34.62076 150.68710 25569 ft 425 kts 234°
2026-04-20 00:38 -34.63828 150.65808 26031 ft 427 kts 234°
2026-04-20 00:38 -34.66186 150.61895 26624 ft 430 kts 234°
2026-04-20 00:39 -34.67353 150.59954 26928 ft 431 kts 234°
2026-04-20 00:39 -34.69123 150.57009 27348 ft 434 kts 234°
2026-04-20 00:39 -34.70914 150.54026 27728 ft 436 kts 234°
2026-04-20 00:39 -34.72700 150.51048 28155 ft 437 kts 234°
2026-04-20 00:40 -34.74500 150.48045 28483 ft 440 kts 234°
2026-04-20 00:40 -34.76309 150.45024 28803 ft 443 kts 234°
2026-04-20 00:40 -34.78132 150.41975 29082 ft 447 kts 234°
2026-04-20 00:40 -34.79962 150.38915 29455 ft 447 kts 234°
2026-04-20 00:41 -34.81800 150.35836 29767 ft 450 kts 234°
2026-04-20 00:41 -34.83644 150.32747 30091 ft 452 kts 234°
2026-04-20 00:41 -34.85473 150.29679 30407 ft 454 kts 234°
2026-04-20 00:41 -34.87329 150.26564 30666 ft 457 kts 234°
2026-04-20 00:42 -34.89222 150.23383 30971 ft 459 kts 234°
2026-04-20 00:42 -34.91087 150.20247 31207 ft 463 kts 234°
2026-04-20 00:42 -34.92971 150.17075 31596 ft 462 kts 234°
2026-04-20 00:42 -34.94854 150.13903 31985 ft 461 kts 234°
2026-04-20 00:43 -34.96740 150.10721 32394 ft 460 kts 234°
2026-04-20 00:43 -34.98609 150.07568 32801 ft 458 kts 234°
2026-04-20 00:43 -35.00472 150.04420 33167 ft 457 kts 234°
2026-04-20 00:43 -35.02336 150.01268 33528 ft 456 kts 234°
2026-04-20 00:44 -35.04191 149.98129 33807 ft 457 kts 234°
2026-04-20 00:44 -35.06046 149.94988 34124 ft 456 kts 234°
2026-04-20 00:44 -35.07903 149.91839 34443 ft 455 kts 234°
2026-04-20 00:44 -35.09746 149.88710 34741 ft 455 kts 234°
2026-04-20 00:45 -35.11569 149.85615 35024 ft 454 kts 234°
2026-04-20 00:45 -35.13418 149.82474 35301 ft 454 kts 234°
2026-04-20 00:45 -35.15263 149.79336 35558 ft 453 kts 234°
2026-04-20 00:45 -35.17094 149.76219 35823 ft 453 kts 234°
2026-04-20 00:46 -35.18935 149.73082 36072 ft 452 kts 234°
2026-04-20 00:46 -35.20767 149.69957 36290 ft 452 kts 234°
2026-04-20 00:46 -35.22596 149.66835 36497 ft 452 kts 234°
2026-04-20 00:46 -35.24430 149.63701 36696 ft 453 kts 234°
2026-04-20 00:47 -35.26233 149.60618 36881 ft 453 kts 234°
2026-04-20 00:47 -35.28092 149.57435 37076 ft 453 kts 234°
2026-04-20 00:47 -35.29917 149.54309 37247 ft 453 kts 234°
2026-04-20 00:47 -35.31757 149.51153 37410 ft 454 kts 234°
2026-04-20 00:48 -35.33587 149.48013 37584 ft 453 kts 234°
2026-04-20 00:48 -35.35420 149.44865 37784 ft 453 kts 234°
2026-04-20 00:48 -35.37226 149.41759 37955 ft 453 kts 234°
2026-04-20 00:49 -35.40882 149.35465 38000 ft 452 kts 234°
2026-04-20 00:49 -35.44531 149.29171 38000 ft 453 kts 234°
2026-04-20 00:50 -35.48173 149.22878 38000 ft 452 kts 234°
2026-04-20 00:50 -35.51804 149.16593 37999 ft 453 kts 235°
2026-04-20 00:51 -35.55439 149.10289 37999 ft 451 kts 235°
2026-04-20 00:51 -35.59055 149.04006 37986 ft 449 kts 235°
2026-04-20 00:52 -35.62670 148.97715 38000 ft 452 kts 235°
2026-04-20 00:52 -35.66319 148.91352 38001 ft 456 kts 235°
2026-04-20 00:53 -35.69956 148.85000 38000 ft 457 kts 235°
2026-04-20 00:53 -35.73604 148.78617 38000 ft 456 kts 235°
2026-04-20 00:54 -35.77265 148.72197 38000 ft 455 kts 235°
2026-04-20 00:54 -35.80877 148.65854 38000 ft 455 kts 235°
2026-04-20 00:55 -35.84514 148.59453 38000 ft 456 kts 235°
2026-04-20 00:55 -35.88152 148.53042 38000 ft 457 kts 235°
2026-04-20 00:56 -35.91784 148.46607 37996 ft 456 kts 235°
2026-04-20 00:56 -35.95413 148.40155 38009 ft 458 kts 235°
2026-04-20 00:57 -35.99010 148.33751 38000 ft 455 kts 235°
2026-04-20 00:57 -36.02620 148.27313 38000 ft 454 kts 235°
2026-04-20 00:58 -36.06229 148.20866 37999 ft 456 kts 235°
2026-04-20 00:58 -36.09812 148.14453 38000 ft 450 kts 236°
2026-04-20 00:59 -36.13372 148.08075 37999 ft 450 kts 235°
2026-04-20 00:59 -36.16907 148.01757 38000 ft 448 kts 235°
2026-04-20 01:00 -36.20467 147.95380 38004 ft 452 kts 235°
2026-04-20 01:00 -36.24014 147.89013 38000 ft 449 kts 236°
2026-04-20 01:01 -36.27569 147.82620 37999 ft 450 kts 236°
2026-04-20 01:01 -36.31096 147.76265 38000 ft 450 kts 236°
2026-04-20 01:02 -36.34659 147.69830 37999 ft 452 kts 236°
2026-04-20 01:02 -36.38212 147.63387 38000 ft 452 kts 236°
2026-04-20 01:03 -36.41768 147.56925 37999 ft 451 kts 236°
2026-04-20 01:03 -36.45294 147.50508 38000 ft 451 kts 236°
2026-04-20 01:04 -36.48793 147.44128 37362 ft 443 kts 236°
2026-04-20 01:04 -36.50529 147.40959 36655 ft 443 kts 236°
2026-04-20 01:04 -36.52262 147.37792 35969 ft 443 kts 236°
2026-04-20 01:04 -36.53998 147.34616 35252 ft 444 kts 236°
2026-04-20 01:05 -36.55737 147.31432 34421 ft 447 kts 236°
2026-04-20 01:05 -36.57491 147.28217 33603 ft 450 kts 236°
2026-04-20 01:05 -36.59251 147.24989 32765 ft 452 kts 236°
2026-04-20 01:05 -36.60997 147.21783 31937 ft 454 kts 236°
2026-04-20 01:06 -36.62770 147.18525 31168 ft 454 kts 236°
2026-04-20 01:06 -36.64543 147.15263 30310 ft 456 kts 236°
2026-04-20 01:06 -36.66318 147.11996 29773 ft 450 kts 236°
2026-04-20 01:06 -36.68062 147.08781 29094 ft 447 kts 236°
2026-04-20 01:07 -36.69801 147.05573 28382 ft 445 kts 236°
2026-04-20 01:07 -36.71521 147.02397 27859 ft 439 kts 236°
2026-04-20 01:07 -36.73220 146.99255 27314 ft 433 kts 236°
2026-04-20 01:07 -36.74893 146.96160 26712 ft 429 kts 236°
2026-04-20 01:08 -36.76553 146.93086 26029 ft 427 kts 236°
2026-04-20 01:08 -36.78185 146.90060 25492 ft 422 kts 236°
2026-04-20 01:08 -36.79838 146.86993 25117 ft 430 kts 236°
2026-04-20 01:08 -36.81488 146.83929 25007 ft 420 kts 236°
2026-04-20 01:09 -36.83107 146.80920 24999 ft 419 kts 236°
2026-04-20 01:09 -36.84746 146.77870 25001 ft 423 kts 236°
2026-04-20 01:09 -36.86377 146.74834 24998 ft 420 kts 236°
2026-04-20 01:09 -36.88007 146.71796 24985 ft 416 kts 236°
2026-04-20 01:10 -36.89605 146.68816 24456 ft 412 kts 236°
2026-04-20 01:10 -36.92788 146.62869 23129 ft 409 kts 236°
2026-04-20 01:10 -36.94345 146.59958 22566 ft 405 kts 236°
2026-04-20 01:11 -36.95899 146.57049 22037 ft 400 kts 236°
2026-04-20 01:11 -36.97440 146.54161 21415 ft 397 kts 236°
2026-04-20 01:11 -36.98963 146.51306 20861 ft 393 kts 236°
2026-04-20 01:11 -37.00480 146.48460 20230 ft 392 kts 236°
2026-04-20 01:12 -37.01985 146.45632 19708 ft 387 kts 236°
2026-04-20 01:12 -37.03469 146.42843 19057 ft 385 kts 236°
2026-04-20 01:12 -37.04949 146.40058 18486 ft 382 kts 236°
2026-04-20 01:12 -37.06412 146.37303 17974 ft 377 kts 236°
2026-04-20 01:13 -37.07861 146.34573 17431 ft 374 kts 236°
2026-04-20 01:13 -37.09293 146.31872 16872 ft 371 kts 237°
2026-04-20 01:13 -37.10696 146.29223 16351 ft 367 kts 237°
2026-04-20 01:13 -37.12098 146.26574 15814 ft 364 kts 237°
2026-04-20 01:14 -37.13492 146.23939 15264 ft 361 kts 237°
2026-04-20 01:14 -37.14873 146.21326 14737 ft 358 kts 237°
2026-04-20 01:14 -37.16242 146.18734 14205 ft 355 kts 237°
2026-04-20 01:14 -37.17601 146.16159 13671 ft 352 kts 237°
2026-04-20 01:15 -37.18949 146.13602 13122 ft 350 kts 237°
2026-04-20 01:15 -37.20283 146.11070 12605 ft 347 kts 237°
2026-04-20 01:15 -37.21609 146.08552 12107 ft 343 kts 237°
2026-04-20 01:15 -37.22921 146.06058 11574 ft 341 kts 237°
2026-04-20 01:16 -37.24228 146.03573 11028 ft 340 kts 237°
2026-04-20 01:16 -37.25507 146.01139 10556 ft 336 kts 237°
2026-04-20 01:16 -37.26790 145.98694 9991 ft 335 kts 237°
2026-04-20 01:16 -37.28055 145.96284 9779 ft 323 kts 237°
2026-04-20 01:17 -37.29262 145.93982 9646 ft 309 kts 237°
2026-04-20 01:17 -37.30420 145.91772 9516 ft 296 kts 237°
2026-04-20 01:17 -37.31527 145.89659 9401 ft 284 kts 237°
2026-04-20 01:17 -37.32589 145.87637 9291 ft 271 kts 237°
2026-04-20 01:18 -37.33608 145.85697 9196 ft 260 kts 237°
2026-04-20 01:18 -37.34585 145.83837 9109 ft 250 kts 237°
2026-04-20 01:18 -37.35525 145.82044 8944 ft 242 kts 237°
2026-04-20 01:18 -37.36448 145.80284 8721 ft 237 kts 237°
2026-04-20 01:19 -37.37387 145.78490 8686 ft 263 kts 237°
2026-04-20 01:19 -37.38431 145.76497 8678 ft 283 kts 237°
2026-04-20 01:19 -37.39512 145.74433 8676 ft 284 kts 237°
2026-04-20 01:19 -37.40601 145.72351 8676 ft 283 kts 237°
2026-04-20 01:20 -37.41681 145.70285 8676 ft 283 kts 237°
2026-04-20 01:20 -37.42764 145.68210 8676 ft 283 kts 237°
2026-04-20 01:20 -37.43847 145.66135 8679 ft 283 kts 237°
2026-04-20 01:20 -37.44740 145.63928 8677 ft 284 kts 252°
2026-04-20 01:21 -37.45061 145.61511 8677 ft 285 kts 270°
2026-04-20 01:21 -37.45022 145.59024 8677 ft 283 kts 271°
2026-04-20 01:21 -37.44987 145.56551 8677 ft 283 kts 271°
2026-04-20 01:21 -37.44957 145.54066 8678 ft 284 kts 271°
2026-04-20 01:22 -37.44930 145.51574 8677 ft 284 kts 271°
2026-04-20 01:22 -37.44903 145.49091 8677 ft 283 kts 271°
2026-04-20 01:22 -37.44876 145.46620 8676 ft 282 kts 271°
2026-04-20 01:22 -37.44848 145.44172 8511 ft 277 kts 271°
2026-04-20 01:23 -37.44821 145.41804 8411 ft 265 kts 271°
2026-04-20 01:23 -37.44794 145.39525 8198 ft 258 kts 271°
2026-04-20 01:23 -37.44766 145.37270 7839 ft 257 kts 271°
2026-04-20 01:23 -37.44748 145.35781 7618 ft 256 kts 271°
2026-04-20 01:24 -37.44721 145.33546 7272 ft 255 kts 271°
2026-04-20 01:24 -37.44684 145.30596 6816 ft 254 kts 271°
2026-04-20 01:24 -37.44655 145.28377 6496 ft 252 kts 271°
2026-04-20 01:24 -37.44636 145.26891 6271 ft 251 kts 271°
2026-04-20 01:25 -37.44608 145.24699 5933 ft 250 kts 271°
2026-04-20 01:25 -37.44580 145.22543 5608 ft 249 kts 271°
2026-04-20 01:25 -37.44551 145.20367 5292 ft 248 kts 271°
2026-04-20 01:25 -37.44521 145.18204 4945 ft 247 kts 271°
2026-04-20 01:26 -37.44491 145.16056 4720 ft 242 kts 271°
2026-04-20 01:26 -37.44462 145.13997 4674 ft 228 kts 271°
2026-04-20 01:26 -37.44433 145.11910 4687 ft 256 kts 271°
2026-04-20 01:26 -37.44400 145.09546 4679 ft 273 kts 271°
2026-04-20 01:27 -37.44366 145.07221 4678 ft 258 kts 271°
2026-04-20 01:27 -37.44333 145.05054 4675 ft 243 kts 271°
2026-04-20 01:27 -37.44300 145.02955 4677 ft 234 kts 271°
2026-04-20 01:27 -37.44270 145.00976 4675 ft 220 kts 271°
2026-04-20 01:28 -37.44242 144.99116 4654 ft 207 kts 271°
2026-04-20 01:28 -37.44214 144.97331 4531 ft 196 kts 271°
2026-04-20 01:28 -37.44186 144.95612 4324 ft 203 kts 271°
2026-04-20 01:28 -37.44216 144.93888 4108 ft 194 kts 262°
2026-04-20 01:29 -37.44458 144.92232 3831 ft 191 kts 259°
2026-04-20 01:29 -37.44703 144.90574 3710 ft 190 kts 259°
2026-04-20 01:29 -37.44938 144.88939 3307 ft 191 kts 260°
2026-04-20 01:29 -37.45172 144.87287 2930 ft 191 kts 260°
2026-04-20 01:30 -37.45403 144.85659 2706 ft 183 kts 260°
2026-04-20 01:30 -37.45612 144.84171 2687 ft 162 kts 260°
2026-04-20 01:30 -37.45809 144.82770 2679 ft 166 kts 260°
2026-04-20 01:30 -37.46032 144.81335 2677 ft 165 kts 251°
2026-04-20 01:31 -37.46702 144.80320 2667 ft 143 kts 208°
2026-04-20 01:31 -37.47659 144.80118 2676 ft 143 kts 172°
2026-04-20 01:31 -37.48636 144.80334 2680 ft 142 kts 171°
2026-04-20 01:31 -37.49611 144.80535 2678 ft 142 kts 171°
2026-04-20 01:32 -37.50572 144.80726 2673 ft 141 kts 172°
2026-04-20 01:32 -37.51549 144.80921 2676 ft 142 kts 171°
2026-04-20 01:32 -37.52522 144.81118 2678 ft 142 kts 171°
2026-04-20 01:32 -37.53497 144.81329 2673 ft 141 kts 170°
2026-04-20 01:33 -37.54467 144.81552 2638 ft 143 kts 171°
2026-04-20 01:33 -37.55447 144.81734 2519 ft 141 kts 172°
2026-04-20 01:33 -37.56412 144.81895 2383 ft 141 kts 173°
2026-04-20 01:33 -37.57382 144.82046 2096 ft 140 kts 173°
2026-04-20 01:34 -37.58339 144.82191 1831 ft 139 kts 174°
2026-04-20 01:34 -37.59301 144.82344 1698 ft 139 kts 172°
2026-04-20 01:34 -37.60258 144.82535 1526 ft 140 kts 172°
2026-04-20 01:34 -37.61215 144.82721 1312 ft 138 kts 171°
2026-04-20 01:35 -37.62166 144.82911 1077 ft 138 kts 171°
2026-04-20 01:35 -37.63107 144.83090 897 ft 137 kts 172°
2026-04-20 01:35 -37.64056 144.83253 727 ft 137 kts 172°
2026-04-20 01:35 -37.65000 144.83430 543 ft 137 kts 171°
2026-04-20 01:36 -37.65937 144.83608 414 ft 133 kts 172°
2026-04-20 01:36 -37.66653 144.83742 389 ft 71 kts 172°
2026-04-20 01:36 -37.67019 144.83854 381 ft 46 kts 148°
2026-04-20 01:36 -37.67163 144.83989 373 ft 5 kts 142°
2026-04-20 01:37 -37.67164 144.83990 373 ft 0 kts 142°
2026-04-20 01:38 -37.67182 144.84007 372 ft 7 kts 142°
2026-04-20 01:38 -37.67240 144.84059 369 ft 13 kts 151°
2026-04-20 01:38 -37.67344 144.84086 366 ft 18 kts 172°
2026-04-20 01:38 -37.67479 144.84125 365 ft 21 kts 142°
2026-04-20 01:39 -37.67485 144.84294 360 ft 21 kts 80°
2026-04-20 01:39 -37.67466 144.84485 360 ft 22 kts 81°
2026-04-20 01:39 -37.67447 144.84625 357 ft 11 kts 76°
2026-04-20 01:39 -37.67390 144.84637 360 ft 10 kts 351°
2026-04-20 01:40 -37.67354 144.84631 359 ft 0 kts 352°